Change the Weather History Date:

Thursday, November 14, 2013

  Actual Average Record
Temperature  
Mean Temperature 40 °F -  
Max Temperature 57 °F 61 °F 79 °F (1955)
Min Temperature 23 °F 38 °F 23 °F (1983)
Degree Days  
Heating Degree Days 25    
Moisture  
Dew Point 21 °F    
Average Humidity 56    
Maximum Humidity 89    
Minimum Humidity 19    
Precipitation  
Precipitation 0.00 in - - ()
Sea Level Pressure  
Sea Level Pressure 30.42 in    
Wind  
Wind Speed 2 mph (SSW)    
Max Wind Speed 10 mph    
Max Gust Speed -    
Visibility 10 miles    
Events      
Averages and records for this station are not official NWS values.
T = Trace of Precipitation, MM = Missing Value Source: NWS Daily Summary

Daily Weather History Graph

Daily Weather History Graph

Search for Another Location

Airport or City:

Trip Planner

Search our weather history database for the weather conditions in past years. The results will help you decide how hot, cold, wet, or windy it might be!

Date:

Astronomy

Nov. 14, 2013 Rise Set
Actual Time 7:03 AM EST 5:26 PM EST
Civil Twilight 6:36 AM EST 5:53 PM EST
Nautical Twilight 6:06 AM EST 6:23 PM EST
Astronomical Twilight 5:36 AM EST 6:53 PM EST
Moon 3:41 PM EST (11/14) 4:04 AM EST (11/14)
Length of Visible Light 11h 16m
Length of Day
10h 23m
Waxing Gibbous, 91% of the Moon is Illuminated
Nov 14
Waxing Gibbous
Nov 17
Full
Nov 25
Last Quarter
Dec 2
New
Dec 9
First Quarter

Hourly Weather History & Observations

Time (EST) Temp. Windchill Dew Point Humidity Pressure Visibility Wind Dir Wind Speed Gust Speed Precip Events Conditions
12:56 AM 28.0 °F - 21.0 °F 75% 30.49 in 10.0 mi Calm Calm - N/A   Clear
1:56 AM 27.0 °F - 19.9 °F 75% 30.48 in 10.0 mi Calm Calm - N/A   Clear
2:56 AM 26.1 °F - 21.0 °F 81% 30.47 in 10.0 mi Calm Calm - N/A   Clear
3:56 AM 26.1 °F - 21.0 °F 81% 30.47 in 10.0 mi Calm Calm - N/A   Clear
4:56 AM 25.0 °F - 19.9 °F 81% 30.47 in 10.0 mi Calm Calm - N/A   Clear
5:56 AM 23.0 °F - 19.9 °F 88% 30.48 in 10.0 mi Calm Calm - N/A   Clear
6:56 AM 23.0 °F - 19.9 °F 88% 30.48 in 10.0 mi Calm Calm - N/A   Clear
7:56 AM 27.0 °F - 24.1 °F 89% 30.49 in 10.0 mi Calm Calm - N/A   Clear
8:56 AM 35.1 °F 31.0 °F 30.0 °F 82% 30.51 in 10.0 mi SSW 4.6 mph - N/A   Clear
9:56 AM 44.1 °F 38.6 °F 21.0 °F 40% 30.51 in 10.0 mi SSW 10.4 mph - N/A   Clear
10:56 AM 48.0 °F - 21.9 °F 36% 30.49 in 10.0 mi SSW 6.9 mph - N/A   Clear
11:56 AM 51.1 °F - 15.1 °F 24% 30.46 in 10.0 mi SW 8.1 mph - N/A   Clear
12:56 PM 53.1 °F - 15.1 °F 22% 30.42 in 10.0 mi Variable 3.5 mph - N/A   Clear
1:56 PM 55.9 °F - 14.0 °F 19% 30.38 in 10.0 mi SSW 4.6 mph - N/A   Clear
2:56 PM 57.0 °F - 15.1 °F 19% 30.35 in 10.0 mi Variable 3.5 mph - N/A   Clear
3:56 PM 57.0 °F - 15.1 °F 19% 30.35 in 10.0 mi South 5.8 mph - N/A   Clear
4:56 PM 54.0 °F - 18.0 °F 24% 30.34 in 10.0 mi South 8.1 mph - N/A   Clear
5:56 PM 46.9 °F - 21.0 °F 36% 30.36 in 10.0 mi Calm Calm - N/A   Clear
6:56 PM 43.0 °F - 21.9 °F 43% 30.36 in 10.0 mi Calm Calm - N/A   Clear
7:56 PM 39.0 °F - 24.1 °F 55% 30.36 in 10.0 mi Calm Calm - N/A   Clear
8:56 PM 37.0 °F - 24.1 °F 59% 30.36 in 10.0 mi Calm Calm - N/A   Clear
9:56 PM 34.0 °F - 25.0 °F 70% 30.36 in 10.0 mi Calm Calm - N/A   Clear
10:56 PM 33.1 °F - 25.0 °F 72% 30.34 in 10.0 mi Calm Calm - N/A   Clear
11:56 PM 32.0 °F - 25.0 °F 75% 30.35 in 10.0 mi Calm Calm - N/A   Clear